Temperature
-1 -1 -1 -0 -0 -1 -1 -0 -0 -1 -1 -1 -1 -1 -1 -1 -1 -1 -1 -1 -1 -1 -2 -2 -2 -2 -2 -2 -2 -2 -2 -2 -3 -2 -2 -2 -2 -2 -2 -2 -2 -2 -2
-2 -1 -1 -1 -1 -1 -1 -1 -1 -1 -1 -1 -1 -2 -2 -2 -1 -1 -1 -2 -2 -2 -2 -2 -2 -2 -2 -2 -3 -3 -3 -3 -3 -3 -3 -3 -3 -3 -3 -3 -3 -3 -3
-3 -2 -2 -2 -2 -2 -2 -2 -2 -2 -2 -2 -2 -2 -2 -2 -2 -2 -2 -2 -2 -2 -2 -2 -3 -3 -3 -3 -3 -3 -3 -3 -3 -4 -3 -3 -3 -4 -4 -4 -4 -3 -3
-3 -3 -3 -3 -2 -2 -2 -3 -3 -3 -3 -3 -3 -3 -3 -3 -3 -3 -3 -3 -3 -3 -3 -3 -3 -3 -3 -3 -3 -3 -4 -4 -4 -4 -4 -4 -4 -4 -4 -4 -4 -4 -4
-4 -4 -3 -3 -3 -3 -3 -3 -3 -3 -3 -3 -3 -3 -3 -3 -3 -3 -3 -3 -3 -3 -3 -3 -3 -4 -4 -4 -4 -4 -4 -4 -5 -5 -5 -5 -5 -5 -5 -5 -5 -5 -4
-5 -4 -4 -4 -4 -4 -4 -4 -4 -4 -4 -4 -4 -4 -4 -4 -4 -4 -4 -4 -4 -4 -4 -4 -4 -4 -4 -4 -4 -4 -5 -5 -5 -5 -5 -5 -5 -5 -5 -5 -6 -6 -5
-5 -5 -5 -5 -5 -5 -5 -5 -5 -4 -4 -4 -4 -4 -4 -4 -4 -4 -4 -4 -4 -4 -4 -4 -5 -5 -5 -5 -5 -5 -5 -5 -5 -5 -5 -5 -6 -6 -6 -6 -6 -6 -6
-6 -6 -6 -6 -5 -5 -5 -5 -5 -5 -5 -5 -5 -5 -5 -5 -5 -5 -5 -5 -5 -5 -5 -5 -5 -5 -5 -5 -6 -6 -5 -6 -6 -6 -6 -6 -6 -6 -6 -6 -6 -7 -6
-7 -6 -6 -6 -6 -6 -6 -6 -6 -6 -6 -6 -6 -6 -6 -5 -5 -6 -6 -6 -6 -6 -6 -6 -6 -6 -6 -6 -6 -6 -6 -6 -6 -6 -6 -6 -6 -6 -6 -7 -7 -7 -7
-7 -7 -7 -7 -7 -7 -7 -7 -7 -6 -6 -6 -6 -6 -6 -6 -6 -6 -6 -6 -6 -6 -6 -6 -6 -6 -6 -6 -6 -6 -6 -6 -6 -6 -6 -7 -7 -7 -7 -7 -7 -7 -7
-8 -8 -8 -7 -7 -7 -7 -7 -7 -7 -7 -7 -7 -7 -7 -7 -7 -7 -7 -7 -7 -7 -7 -7 -7 -7 -7 -7 -7 -7 -7 -7 -7 -7 -7 -7 -7 -7 -7 -7 -7 -8 -8
-9 -8 -8 -8 -8 -8 -8 -8 -8 -8 -8 -8 -8 -8 -8 -7 -7 -7 -7 -7 -7 -7 -7 -7 -7 -7 -7 -8 -8 -7 -8 -8 -7 -7 -7 -7 -8 -8 -8 -8 -8 -8 -8
-9 -9 -9 -9 -9 -9 -8 -8 -8 -8 -8 -8 -8 -8 -8 -8 -8 -8 -8 -8 -8 -8 -8 -8 -8 -8 -8 -8 -8 -8 -8 -8 -8 -8 -8 -8 -8 -8 -8 -8 -8 -8 -8
-10 -10 -9 -9 -9 -9 -9 -9 -9 -9 -9 -9 -9 -9 -9 -9 -8 -8 -8 -8 -8 -8 -8 -8 -8 -9 -9 -9 -9 -9 -9 -9 -9 -9 -9 -9 -9 -9 -9 -9 -9 -9 -9
-11 -10 -10 -10 -10 -10 -10 -10 -10 -9 -10 -9 -9 -9 -9 -9 -9 -9 -9 -9 -9 -9 -9 -9 -9 -9 -9 -9 -9 -9 -9 -9 -9 -9 -9 -9 -9 -9 -9 -9 -9 -9 -9
-11 -11 -11 -11 -11 -11 -10 -10 -10 -10 -10 -10 -10 -10 -10 -10 -9 -9 -9 -9 -9 -9 -9 -9 -9 -10 -10 -10 -10 -10 -9 -10 -10 -10 -10 -10 -10 -10 -10 -10 -10 -10 -10
-12 -12 -12 -11 -11 -11 -11 -11 -11 -11 -10 -10 -10 -10 -10 -10 -10 -10 -10 -10 -10 -10 -10 -10 -10 -10 -10 -10 -10 -10 -10 -10 -10 -10 -10 -10 -10 -10 -10 -10 -10 -10 -10
-12 -12 -12 -12 -12 -12 -12 -12 -12 -12 -11 -11 -11 -11 -11 -11 -10 -10 -10 -10 -10 -10 -10 -10 -11 -11 -11 -11 -11 -11 -10 -10 -10 -10 -10 -10 -10 -11 -11 -11 -11 -11 -11
-13 -13 -13 -13 -13 -13 -12 -12 -12 -12 -12 -12 -11 -11 -11 -11 -11 -11 -11 -11 -11 -11 -11 -11 -11 -11 -11 -11 -11 -11 -11 -11 -11 -11 -11 -11 -11 -11 -11 -11 -11 -11 -11
-13 -13 -13 -13 -13 -13 -13 -13 -13 -12 -12 -12 -12 -12 -12 -11 -11 -11 -11 -11 -11 -11 -11 -11 -11 -11 -11 -11 -11 -11 -11 -11 -11 -11 -11 -11 -11 -11 -11 -11 -11 -12 -12
-14 -14 -14 -14 -14 -14 -13 -13 -13 -13 -13 -13 -12 -12 -12 -12 -12 -12 -11 -11 -11 -11 -11 -11 -11 -11 -11 -12 -11 -11 -11 -11 -11 -11 -11 -11 -11 -12 -12 -12 -12 -12 -12
-14 -14 -14 -14 -14 -14 -14 -14 -13 -13 -13 -13 -13 -12 -12 -12 -12 -12 -12 -12 -12 -12 -12 -12 -12 -12 -12 -12 -12 -12 -12 -12 -12 -12 -12 -12 -12 -12 -12 -12 -12 -12 -12
-15 -14 -14 -14 -14 -14 -14 -14 -14 -14 -13 -13 -13 -13 -13 -12 -12 -12 -12 -12 -12 -12 -12 -12 -12 -12 -12 -12 -12 -12 -12 -12 -12 -12 -12 -12 -12 -12 -12 -12 -13 -13 -13
-15 -15 -15 -15 -15 -15 -14 -14 -14 -14 -14 -14 -13 -13 -13 -13 -13 -13 -13 -13 -12 -12 -12 -12 -12 -12 -12 -12 -12 -12 -12 -12 -12 -12 -12 -13 -13 -13 -13 -13 -13 -13 -13
-15 -15 -15 -15 -15 -15 -15 -15 -14 -14 -14 -14 -14 -14 -14 -14 -13 -13 -13 -13 -13 -13 -13 -13 -13 -12 -12 -12 -12 -12 -12 -12 -13 -13 -13 -13 -13 -13 -13 -13 -13 -13 -13
-15 -15 -15 -15 -15 -15 -15 -15 -15 -15 -15 -15 -14 -14 -14 -14 -14 -14 -14 -13 -13 -13 -13 -13 -13 -13 -13 -13 -13 -13 -13 -13 -13 -13 -13 -13 -13 -13 -13 -13 -13 -14 -14
Wind_Speed
1 2 2 2 3 3 4 4 4 4 5 5 6 5 5 5 5 5 5 6 6 5 5 5 5 4 4 3 3 3 3 3 5 4 2 2 3 4 6 7 7 7 8
1 1 2 2 2 3 4 4 4 4 4 5 5 5 5 5 5 6 6 5 6 6 6 6 6 4 5 4 4 4 4 4 4 5 3 2 3 4 5 5 6 7 7
2 1 1 1 2 3 3 3 3 4 4 4 5 5 6 6 6 6 6 6 6 6 6 6 6 6 6 5 5 5 4 4 4 5 5 3 3 3 3 4 5 5 7
3 2 1 1 2 2 2 2 3 3 4 4 4 5 5 5 5 6 6 6 6 5 6 6 6 7 7 7 6 6 5 5 4 4 4 4 3 3 2 3 4 3 4
3 3 2 1 1 1 1 2 2 2 3 3 4 4 4 4 5 6 6 6 6 5 5 5 6 8 10 8 6 6 6 5 5 5 5 4 4 3 4 3 4 4 4
3 3 3 2 1 1 1 1 1 2 2 2 3 4 4 4 6 7 6 5 6 6 5 5 6 7 9 9 9 9 8 7 6 6 6 6 6 5 4 4 4 4 4
3 3 3 2 2 2 1 1 1 1 2 2 2 3 4 5 7 7 7 4 4 5 5 5 4 5 6 5 7 8 9 11 10 7 7 7 6 5 5 5 5 5 5
3 4 3 3 3 2 1 1 2 2 2 2 2 3 3 4 6 7 7 4 3 4 5 5 6 5 5 6 5 5 6 6 8 6 6 7 7 6 6 5 5 4 4
4 4 4 3 3 3 2 2 2 1 2 2 2 2 3 4 6 6 5 3 3 4 5 5 5 6 8 9 6 5 5 5 7 9 10 10 10 10 8 4 3 3 4
5 5 4 3 3 3 3 2 2 2 2 2 2 2 3 4 6 6 5 3 3 3 4 5 7 7 8 8 6 5 6 5 4 4 5 6 6 6 7 5 4 4 3
6 5 5 4 3 3 3 2 2 2 2 2 2 3 3 4 5 6 6 3 4 3 3 3 4 7 7 7 6 5 7 5 3 3 3 3 3 3 3 4 5 4 4
6 6 5 4 3 3 2 2 1 1 2 2 2 2 2 3 4 5 6 5 4 3 3 3 4 6 7 7 5 5 6 4 2 2 3 3 3 3 3 3 4 5 5
6 6 5 5 4 3 2 2 2 2 2 2 2 2 3 2 3 6 6 6 5 3 3 5 5 6 6 4 5 5 4 2 2 3 3 3 3 3 2 2 2 3 4
6 6 5 4 4 3 3 2 2 2 3 3 3 3 3 3 3 3 3 4 4 3 3 4 5 5 4 3 3 3 2 2 3 3 3 2 1 1 2 2 2 2 2
6 5 5 4 4 4 4 3 4 4 4 4 4 4 3 4 5 6 3 3 3 3 2 1 1 1 2 2 2 2 2 2 2 2 2 2 2 2 2 1 2 2 2
6 5 4 4 4 3 4 4 5 5 7 8 7 6 5 7 8 8 7 6 5 4 3 2 3 3 3 3 2 2 2 3 3 2 2 2 3 3 3 2 2 2 3
5 5 5 4 4 4 4 4 5 5 6 7 7 7 7 7 7 8 8 7 6 5 3 3 3 3 3 3 3 3 3 3 3 3 3 3 3 3 3 3 2 2 3
5 6 6 4 4 4 4 4 4 4 5 5 6 7 7 7 7 7 7 5 4 4 3 4 4 4 4 4 4 3 3 3 3 3 3 3 3 3 3 3 3 3 4
5 4 4 4 4 4 4 4 4 4 4 5 5 5 6 7 7 7 5 3 4 4 4 4 4 4 4 4 4 4 4 4 4 4 4 4 4 3 4 4 4 6 5
5 8 7 4 4 4 4 4 4 4 5 5 5 5 4 4 4 4 3 3 4 4 4 4 4 4 4 4 4 4 4 4 4 4 4 4 4 4 4 5 4 4 5
5 6 8 6 4 4 4 4 4 5 5 5 5 6 8 5 4 4 4 4 4 4 4 4 4 4 4 4 4 5 5 5 5 4 4 4 4 4 4 4 5 5 5
4 4 4 5 5 5 5 4 4 5 5 6 6 6 9 5 4 4 4 4 4 4 4 5 5 5 5 5 5 5 6 6 6 5 5 5 4 4 4 4 5 4 4
4 5 5 5 5 6 6 4 4 4 5 5 5 5 5 4 4 4 5 4 4 4 5 5 5 5 6 7 7 7 7 7 7 7 6 5 5 5 5 5 6 5 5
4 5 5 5 5 4 4 5 4 5 5 5 5 4 4 4 4 5 4 4 4 5 5 5 6 7 8 8 8 9 9 10 9 9 9 8 7 6 5 5 6 6 6
4 5 5 5 4 4 5 5 5 5 5 5 5 4 4 4 4 4 4 4 4 5 5 6 6 7 8 9 9 9 11 12 12 10 9 8 7 7 6 6 6 6 6
4 4 4 4 4 4 4 5 5 5 5 5 5 4 4 4 4 4 4 4 4 4 5 6 7 8 9 9 10 11 12 12 12 12 9 7 7 7 7 6 7 7 6
Wind_Direction
226 205 205 203 195 192 195 202 202 199 193 191 194 195 197 195 194 193 191 190 196 201 203 205 213 202 200 200 200 204 212 211 242 263 251 255 252 267 285 290 292 292 291
304 222 206 195 181 193 206 209 205 203 202 200 196 196 201 200 197 195 197 198 199 204 205 207 216 208 204 202 204 211 218 216 223 253 265 254 251 250 261 276 288 288 287
340 311 227 206 203 211 215 216 208 203 203 202 196 198 203 204 202 204 200 203 206 209 206 206 211 202 211 210 208 212 219 227 221 234 256 258 260 255 264 281 281 281 288
349 349 309 249 231 222 209 211 213 205 197 196 201 204 206 208 207 209 207 205 206 211 212 211 212 208 211 210 213 211 211 218 217 225 243 256 258 252 247 270 286 282 286
349 348 340 314 278 231 209 204 208 206 208 205 199 203 208 209 210 207 210 208 207 209 212 217 222 222 219 218 216 207 205 212 218 225 238 253 254 247 248 254 271 286 288
339 337 343 352 339 296 241 216 206 205 203 201 207 204 208 221 225 222 219 210 205 208 213 215 223 227 229 233 236 232 222 218 220 225 237 238 246 245 247 251 265 277 284
335 336 344 344 341 320 289 240 228 219 203 211 220 215 219 227 232 230 228 213 203 207 208 209 219 224 228 227 238 243 246 247 242 232 232 235 237 235 234 248 250 258 265
331 333 339 340 332 331 314 265 249 237 222 225 230 231 233 237 238 234 226 209 203 211 214 211 213 218 226 225 224 229 237 243 248 243 234 236 233 226 222 232 241 258 273
329 326 328 328 322 316 304 284 259 248 255 248 240 232 240 251 240 231 227 204 213 219 223 218 215 216 232 233 224 225 237 248 252 253 252 246 246 241 232 218 220 239 268
320 315 313 311 303 296 289 283 274 249 250 257 264 245 240 249 241 232 223 215 220 226 228 228 229 228 231 230 216 211 227 241 243 253 259 258 248 243 244 224 215 228 251
318 313 310 304 294 286 287 289 282 269 257 251 261 265 255 254 250 241 227 216 214 223 233 235 237 234 238 239 233 221 233 234 226 236 244 250 251 243 241 228 221 225 238
321 317 308 304 298 299 288 286 274 256 249 250 255 269 266 262 270 251 234 232 225 216 227 235 240 240 242 245 243 241 244 242 219 222 233 237 240 243 242 232 230 235 240
321 316 312 308 301 293 276 272 265 244 247 256 255 264 273 276 271 269 244 239 234 229 234 239 243 243 246 248 249 248 244 233 219 229 235 240 240 234 230 238 252 255 268
314 312 311 312 308 298 285 269 259 252 251 254 256 260 268 270 268 268 251 241 235 242 242 238 237 242 244 248 251 246 239 232 232 237 242 245 242 230 230 234 255 266 283
310 309 310 309 304 306 299 282 270 250 243 249 247 245 248 259 261 265 261 247 226 224 214 210 221 233 235 241 244 244 239 239 246 249 252 250 246 241 250 243 240 249 252
312 313 310 307 306 308 309 311 303 288 281 275 267 261 259 262 269 269 262 253 243 220 204 212 223 228 231 234 239 248 248 242 243 242 240 242 243 240 245 253 249 242 258
298 302 302 302 301 300 302 306 312 314 303 292 283 277 273 272 271 271 266 255 240 219 212 218 220 224 230 233 237 242 249 255 250 242 238 238 237 236 237 244 248 254 262
301 300 301 293 291 290 292 292 291 295 303 303 296 289 285 280 276 273 266 250 240 231 221 222 228 229 229 232 234 240 247 249 246 242 237 236 227 224 230 236 239 243 258
305 303 298 293 290 288 288 288 285 283 284 288 294 293 292 290 284 273 259 239 237 239 235 231 230 230 233 234 236 236 237 239 240 237 234 232 226 221 230 234 239 253 259
305 309 312 304 299 296 292 290 287 283 281 280 282 287 294 294 287 283 268 247 240 239 240 238 236 234 235 233 233 233 234 235 237 236 234 232 230 226 231 237 239 245 252
305 307 313 310 303 299 293 288 285 280 279 280 280 281 282 277 273 270 266 259 250 242 239 241 241 236 234 233 231 230 229 233 234 234 235 234 231 236 238 237 241 245 249
299 299 300 299 299 297 294 289 287 283 281 285 291 292 290 285 275 274 267 261 258 254 245 238 238 236 231 228 228 230 231 232 231 228 231 234 233 237 238 239 241 243 245
298 297 299 299 298 298 303 300 295 293 293 294 294 294 295 288 280 275 271 268 263 260 257 248 241 243 243 240 236 230 228 230 228 223 222 229 232 234 236 239 240 242 244
299 297 297 299 299 295 294 295 297 297 297 298 299 296 292 289 287 285 279 270 265 265 264 257 248 244 247 252 250 245 242 240 236 230 223 220 224 230 234 238 239 240 243
305 302 300 298 297 297 295 295 296 297 298 298 299 299 297 294 291 289 285 278 272 267 268 269 261 253 251 253 255 255 252 249 246 238 227 220 219 224 230 234 237 241 244
309 304 300 298 295 293 293 293 294 295 295 296 295 293 291 289 289 290 291 285 283 281 280 276 268 266 265 263 260 259 258 254 249 246 237 222 215 222 223 230 232 235 238
Height
1454 1455 1456 1457 1458 1460 1462 1463 1465 1467 1468 1470 1472 1474 1476 1477 1479 1480 1482 1484 1486 1488 1490 1491 1493 1494 1495 1497 1498 1499 1500 1500 1499 1499 1501 1501 1502 1502 1502 1502 1502 1502 1501
1451 1452 1453 1453 1454 1456 1457 1459 1460 1462 1464 1465 1467 1468 1470 1471 1473 1475 1476 1478 1480 1482 1484 1485 1487 1488 1489 1491 1492 1493 1494 1495 1495 1494 1495 1496 1496 1497 1497 1497 1497 1497 1496
1449 1449 1449 1449 1450 1451 1452 1454 1456 1457 1459 1460 1461 1463 1465 1466 1467 1469 1471 1472 1474 1476 1478 1480 1481 1483 1484 1485 1486 1488 1489 1490 1490 1490 1489 1490 1491 1492 1492 1492 1492 1491 1490
1446 1446 1446 1446 1446 1447 1448 1449 1451 1452 1454 1455 1456 1458 1459 1461 1462 1464 1465 1467 1469 1471 1472 1474 1476 1477 1478 1479 1481 1482 1483 1484 1485 1485 1484 1485 1486 1486 1487 1486 1485 1485 1485
1444 1443 1443 1443 1443 1444 1444 1445 1447 1448 1449 1450 1452 1453 1455 1456 1457 1458 1460 1462 1463 1465 1467 1468 1470 1471 1473 1474 1475 1476 1478 1479 1479 1479 1479 1480 1480 1481 1481 1481 1480 1480 1479
1442 1441 1440 1440 1440 1441 1441 1442 1443 1444 1445 1446 1447 1449 1450 1451 1453 1454 1456 1457 1458 1459 1461 1462 1464 1466 1467 1468 1470 1471 1473 1474 1474 1474 1474 1474 1475 1476 1476 1476 1475 1474 1473
1440 1439 1438 1438 1438 1438 1438 1439 1439 1440 1441 1442 1443 1444 1445 1447 1448 1449 1450 1452 1453 1454 1455 1457 1459 1460 1462 1463 1464 1465 1467 1468 1470 1470 1469 1469 1470 1470 1471 1470 1470 1469 1468
1438 1437 1436 1435 1435 1435 1435 1436 1436 1437 1437 1438 1439 1440 1441 1442 1443 1445 1446 1447 1448 1449 1451 1452 1454 1455 1457 1458 1459 1460 1461 1462 1463 1464 1464 1464 1465 1465 1466 1466 1465 1464 1463
1436 1435 1434 1433 1432 1432 1432 1433 1433 1433 1434 1434 1435 1435 1436 1437 1439 1440 1441 1442 1443 1445 1446 1448 1449 1450 1452 1453 1454 1455 1455 1456 1458 1458 1459 1459 1459 1460 1460 1460 1459 1459 1458
1434 1433 1432 1431 1430 1430 1430 1430 1430 1430 1430 1431 1431 1431 1432 1433 1434 1436 1437 1438 1439 1440 1441 1443 1444 1446 1447 1448 1449 1450 1450 1451 1452 1452 1453 1453 1454 1454 1455 1455 1455 1454 1453
1432 1431 1430 1429 1428 1428 1427 1427 1427 1427 1427 1427 1427 1428 1428 1429 1430 1432 1433 1434 1434 1435 1436 1437 1439 1441 1442 1443 1444 1445 1445 1446 1447 1447 1447 1448 1448 1449 1449 1449 1450 1450 1449
1429 1428 1427 1426 1425 1425 1424 1423 1423 1423 1423 1423 1423 1424 1424 1425 1426 1427 1429 1430 1431 1431 1432 1433 1434 1436 1437 1438 1439 1440 1441 1441 1441 1442 1442 1443 1443 1443 1444 1444 1445 1445 1445
1427 1425 1424 1423 1422 1422 1421 1420 1420 1420 1420 1420 1420 1420 1420 1421 1422 1424 1425 1426 1427 1428 1428 1430 1430 1431 1432 1433 1434 1435 1436 1436 1436 1437 1437 1437 1438 1439 1439 1439 1439 1439 1439
1424 1422 1421 1420 1419 1418 1417 1417 1416 1416 1416 1416 1416 1416 1416 1417 1418 1419 1420 1421 1422 1423 1424 1425 1426 1427 1428 1429 1430 1430 1431 1431 1432 1432 1432 1433 1434 1434 1434 1434 1434 1434 1433
1421 1419 1418 1417 1415 1414 1414 1413 1413 1413 1413 1413 1413 1413 1413 1413 1414 1416 1417 1417 1418 1419 1420 1421 1422 1422 1423 1424 1424 1425 1426 1427 1427 1427 1428 1428 1428 1429 1429 1429 1429 1429 1429
1418 1417 1415 1414 1412 1411 1410 1410 1409 1410 1410 1410 1410 1410 1409 1410 1411 1412 1413 1414 1414 1415 1416 1416 1416 1417 1418 1419 1419 1420 1421 1421 1422 1423 1423 1423 1423 1424 1424 1424 1424 1424 1424
1416 1414 1413 1411 1410 1409 1408 1407 1406 1406 1406 1406 1406 1406 1406 1406 1407 1408 1409 1409 1410 1411 1411 1411 1412 1412 1413 1414 1415 1415 1416 1417 1418 1418 1418 1418 1419 1419 1419 1419 1419 1419 1419
1413 1412 1410 1409 1408 1406 1405 1404 1403 1402 1401 1401 1402 1402 1402 1402 1403 1403 1405 1405 1405 1406 1406 1407 1407 1408 1409 1409 1410 1411 1411 1412 1413 1413 1413 1413 1414 1414 1414 1414 1414 1414 1414
1411 1409 1408 1406 1405 1404 1403 1402 1401 1400 1399 1398 1398 1398 1399 1399 1399 1399 1400 1400 1400 1401 1401 1402 1403 1403 1404 1405 1406 1406 1407 1407 1407 1408 1408 1408 1408 1409 1409 1410 1410 1410 1409
1408 1407 1405 1404 1403 1401 1400 1399 1398 1397 1396 1396 1395 1394 1394 1394 1394 1394 1395 1395 1396 1396 1397 1397 1398 1398 1399 1400 1400 1401 1401 1401 1402 1402 1403 1403 1403 1404 1404 1404 1404 1404 1404
1405 1404 1403 1401 1400 1399 1397 1396 1395 1394 1393 1392 1392 1391 1391 1391 1390 1390 1390 1390 1391 1391 1392 1392 1393 1393 1394 1395 1395 1395 1396 1396 1397 1397 1397 1398 1398 1398 1399 1399 1399 1399 1399
1403 1401 1400 1398 1397 1396 1394 1393 1392 1391 1390 1389 1387 1387 1387 1387 1386 1386 1386 1386 1386 1387 1387 1387 1387 1388 1389 1389 1389 1390 1390 1391 1391 1392 1392 1392 1393 1393 1394 1394 1394 1394 1394
1400 1399 1397 1395 1394 1393 1391 1390 1389 1387 1386 1385 1384 1383 1382 1382 1382 1381 1381 1381 1381 1381 1382 1382 1382 1382 1383 1383 1384 1384 1384 1385 1386 1386 1386 1387 1387 1388 1388 1388 1388 1388 1388
1398 1396 1394 1392 1391 1390 1388 1387 1385 1384 1383 1382 1381 1379 1379 1378 1377 1377 1376 1376 1376 1376 1376 1376 1376 1376 1377 1377 1378 1378 1379 1379 1380 1380 1381 1381 1382 1382 1382 1383 1383 1383 1383
1395 1393 1391 1389 1387 1386 1385 1383 1382 1381 1379 1378 1377 1376 1375 1374 1373 1372 1372 1371 1371 1371 1371 1371 1371 1371 1371 1372 1372 1372 1373 1374 1374 1375 1375 1376 1376 1377 1377 1377 1377 1378 1378
1391 1390 1388 1386 1384 1383 1381 1379 1378 1377 1376 1374 1373 1372 1371 1370 1369 1368 1367 1367 1366 1366 1366 1366 1366 1366 1366 1366 1366 1367 1367 1368 1368 1369 1370 1370 1371 1371 1371 1372 1372 1372 1372